OBJECT H, 66673

Orbit data source: Space-Track

You're viewing an uncataloged RSO

Recently launched and/or uncataloged RSOs may have evolving metadata. Metadata may include the following, but is not limited to: Owner, Manufacturer, Bus, Motor, and Mission.

OBJECT H, 66673 is a satellite in SSO that was launched on Fri, 28 Nov 2025 UTC via an FALCON 9 launch vehicle from the Air Force Western Test Range (AFWTR). Unknown objects in Earth's orbit typically refer to objects detected orbiting the Earth but have not yet been identified or cataloged. These objects could be anything from previously untracked satellites, spent rocket stages, debris from satellite collisions, or even natural meteoroids temporarily captured by Earth's gravity.

Loading next visibility...
Identifier
66673, 2025-276H
Orbit
SSO
Country
Flag of TBDTBD
Related business
None
Manufacturer
Unknown
Mission
Operational Commercial Imaging
Bus & Motor
Unknown
Mass
Unknown
Launch date (UTC)
2025-11-28 (9 months ago)
Launch vehicle
FALCON 9
Launch site
Air Force Western Test Range (AFWTR)
Object type
Unknown
Shape & HBR
Box, 0.2 m
Radar Cross Section
0.100 m², Medium (>0.1 m² and < 1m²)

Expand to show TLE details & history
Last TLE update: 7 hours ago

TLE from 7 hours ago
0 OBJECT H
1 66673U 25276H   26238.43328578  .00012962  00000-0  52766-3 0  9990
2 66673  97.4116 311.4443 0007491 120.1278 240.0702 15.24604583 41143
Epoch: 2026-08-26T10:23Z
TLE epoch observation values (Epoch: 2026-08-26T10:23:55.891Z)
Latitude
-0.00011°
Longitude
-179.22492°
Altitude
497.641 km
Speed
7.614 km/s
True Right ascension
20h 45m 46s
True Declination
0° 00' 00"
Sunlit
Object was in full shadow at epoch
Visualization orbit readout
Latitude
Unknown
Longitude
Unknown
Altitude
Unknown
Speed
Unknown
Apparent Right ascension
Unknown
Apparent Declination
Unknown
Sunlit
N/A
Visualization observer readout
Local Sidereal Time
08:22:13
Azimuth
Unknown
Elevation
Unknown
Doppler factor
Unknown
Orbital elements
Apogee altitude
494.077 km
Perigee altitude
483.789 km
Semi-major axis
6,867.07 km
Eccentricity
0.00075
Inclination
97.4116°
RAAN
311.4443°
Arg. of periapsis
120.1278°
True anomaly
239.99584°
Mean anomaly
240.0702°
Eccentric anomaly
240.03302°
Mean motion
3.81405 °/min
Orbital period
94.39 mins
BSTAR
0.00052766
Loading maneuver chart data...
Computing Atmospheric mass density...
Loading historical data...
Loading historical data...
Loading historical data...
Loading historical data...
Loading historical data...
Loading historical data...
Loading historical data...

Documentation

Showing up to 5 results
|